[ hide orbit diagram ]
For accurate long-term ephemerides, please instead use our Horizons system.This orbit viewer was implemented using two-body methods, and hence should not be used for determining accurate long-term trajectories (over several years or decades) or planetary encounter circumstances.
Orbital Elements at Epoch 2459000.5 (2020-May-31.0) TDB
Reference: JPL 15 (heliocentric ecliptic J2000)
Element | Value | Uncertainty (1-sigma) | Units |
e | .1545146821774604 | 4.7886e-08 | |
a | 2.356186724398956 | 1.3128e-08 | au |
q | 1.9921212815277 | 1.0862e-07 | au |
i | 1.359595315734945 | 4.8758e-06 | deg |
node | 245.1944463101384 | 0.00020674 | deg |
peri | 296.4401828828601 | 0.00020737 | deg |
M | 55.6810068654615 | 1.5775e-05 | deg |
tp | 2458796.176855803250 (2019-Nov-08.67685580) | 5.7513e-05 | TDB |
period | 1321.030923319318 3.62 | 1.1041e-05 3.023e-08 | d yr |
n | .2725144382657129 | 2.2776e-09 | deg/d |
Q | 2.720252167270213 | 1.5157e-08 | au |
|
| | Orbit Determination Parameters
Additional Information
|
[ show covariance matrix ]
Physical Parameter Table
Parameter |
Symbol |
Value |
Units |
Sigma |
Reference |
Notes |
absolute magnitude |
H |
17.11 |
|
n/a |
E2021B55 |
|
rotation period |
rot_per |
2.62 |
h |
n/a |
LCDB (Rev. 2020-October); Warner et al., 2009 |
Result based on fragmentary lightcurve(s), may be completely wrong. Published Reference List: [Chang, C.-K.; Lin, H.-W.; Ip, W.-H.; Prince, T.A.; et al. (2016) Astrophys. J. Sup. Ser. 227, A20.] |
|
214168 (2005 CO37) Discovered 2005-Feb-02 by CSS at Catalina |
Reference: 20090509/Numbers.arc | Last Updated: 2009-05-11 |
|
[ show close-approach data ]
|